[[{"header":{"parameterUnit":"m.s-1","parameterCategory":1,"la1":30.2991,"la2":30.254,"lo1":-89.0895,"lo2":-89.0444,"dy":0.0017,"dx":0.0017,"nx":28,"ny":28,"refTime":"2025-07-10T21:00:00:Z","depth":0,"parameterNumber":2,"parameterNumberName":"U-component_of_WINDS"},"data":[0,0,0,0,0,0,0,0,0,0,0,0,0,0,0,0,0,0,0,0,0,0,0,0,0,0,0,0,0,0,0,0,0,0,0,0,0,0,0,0,0,0,0,0,0,0,0,0,0,0,0,0,0,0,0,0,0,0,2.0578,2.058,0,2.0716,2.0718,2.0719,2.0732,2.073,2.0729,2.0727,2.0875,2.088,2.0885,0,0,0,0,0,0,0,0,0,0,0,0,0,2.0331,2.0336,2.0578,2.058,2.0581,2.0716,2.0718,2.072,2.0732,2.073,2.0728,2.0727,2.0873,2.0879,2.0886,0,0,0,0,0,0,0,0,0,0,0,0,0,2.0451,2.0337,2.0578,2.0604,2.0607,2.0716,2.0718,2.072,2.0732,2.073,2.0728,2.0726,2.0871,2.0879,2.0887,2.098,0,0,2.0911,2.0914,0,0,0,0,0,0,0,0,2.0444,2.046,2.0598,2.0602,2.0606,2.0704,2.0685,2.0808,2.0733,2.0685,2.0727,2.0725,2.082,2.0832,2.0863,2.0987,2.0994,2.0912,2.0916,2.092,2.0922,0,0,0,0,0,0,0,2.0436,2.0454,2.0633,2.06,2.0605,2.0611,2.0625,2.0708,2.0764,2.0689,2.069,2.0706,2.0822,2.0856,2.0867,2.0996,2.0911,2.0918,2.0923,2.0926,2.1206,2.1209,0,0,0,0,0,0,2.0422,2.0447,2.0628,2.0637,2.0518,2.0617,2.0633,2.0675,2.0763,2.0774,2.0708,2.0706,2.0843,2.0857,2.0872,2.0989,2.092,2.0927,2.0932,2.1204,2.1207,2.121,0,0,0,0,0,0,2.0416,2.0438,2.0623,2.0542,2.0566,2.0623,2.0671,2.0679,2.0712,2.0777,2.0787,2.0731,2.0842,2.0861,2.0954,2.0995,2.0931,2.0938,2.1201,2.1205,2.1208,2.1223,0,0,0,0,0,0,2.0409,2.0436,2.047,2.0543,2.0571,2.07,2.0673,2.0683,2.0726,2.0725,2.0802,2.0813,2.0842,2.0942,2.0961,2.1004,2.0944,2.1197,2.1203,2.1207,2.122,2.1227,2.1234,0,0,0,0,0,2.04,2.047,2.0472,2.0494,2.0615,2.0702,2.0718,2.0749,2.0729,2.0765,2.0807,2.081,2.0987,2.0951,2.0973,2.1019,2.1195,2.1201,2.1207,2.1216,2.1226,2.1234,0,0,0,0,0,0,2.0402,2.048,2.0483,2.0577,2.0633,2.0704,2.0751,2.0757,2.0821,2.0818,2.0855,2.0872,2.0964,2.1001,2.096,2.1116,2.1089,2.11,2.1088,2.1098,2.1105,2.1095,2.0951,0,0,0,0,0,2.0413,2.0475,2.0541,2.0618,2.0646,2.0693,2.0733,2.0751,2.0811,2.0835,2.0884,2.0943,2.1012,2.1057,2.1124,2.1225,2.1243,2.1268,2.1275,2.1281,2.129,2.1348,2.1361,2.123,2.123,2.1229,0,0,2.0437,2.0487,2.0525,2.062,2.0665,2.0731,2.0713,2.0784,2.0834,2.0847,2.0937,2.0975,2.1044,2.1141,2.1187,2.1175,2.133,2.1288,2.1292,2.1299,2.1356,2.1368,2.1379,2.1234,2.1233,2.1232,0,0,2.0515,2.0558,2.0628,2.0674,2.0742,2.0773,2.079,2.0861,2.0886,2.0977,2.0988,2.105,2.1167,2.1217,2.1257,2.1355,2.1362,2.1376,2.1415,2.1471,2.1482,2.1491,2.1528,2.1541,2.1385,2.1385,2.1385,0,2.0537,2.0635,2.0664,2.0734,2.0777,2.079,2.0862,2.0906,2.0993,2.1024,2.1009,2.1158,2.1205,2.1315,2.1339,2.1371,2.1393,2.1368,2.1477,2.1487,2.1496,2.1532,2.1546,2.1387,2.1386,2.1386,2.1386,0,2.066,2.0728,2.0777,2.0859,2.0907,2.0979,2.102,2.1066,2.1081,2.1115,2.1209,2.1266,2.1346,2.1373,2.1388,2.1486,2.1477,2.1469,2.1443,2.151,2.1544,2.1558,2.1389,2.1388,2.1388,2.1387,0,0,2.0743,2.084,2.0858,2.0896,2.0973,2.1028,2.1101,2.1177,2.1216,2.1277,2.134,2.144,2.1434,2.148,2.1501,2.1551,2.1627,2.1538,2.154,2.1554,2.1741,2.1748,2.1763,2.1631,2.1634,2.1636,2.1736,0,2.083,2.0958,2.0987,2.1098,2.1163,2.1177,2.1241,2.1297,2.133,2.1392,2.1431,2.1501,2.1487,2.1515,2.1564,2.1607,2.1666,2.16,2.1694,2.1697,2.1677,2.178,2.1787,2.1878,2.1749,2.1752,2.1753,0,2.095,2.1012,2.1129,2.1198,2.1227,2.1283,2.1357,2.1415,2.1479,2.15,2.1552,2.1569,2.1648,2.1617,2.1728,2.1683,2.1723,2.175,2.1755,2.1766,2.173,2.1796,2.1908,2.1922,2.1774,2.1773,2.1771,0,2.1001,2.1113,2.1198,2.1231,2.1313,2.1353,2.139,2.1452,2.1497,2.1561,2.1591,2.1665,2.1706,2.1764,2.1801,2.1774,2.191,2.1881,2.1932,2.1931,2.1961,2.1959,2.2082,2.1984,2.1984,2.1983,2.1983,0,2.1097,2.1169,2.1222,2.1275,2.1357,2.139,2.1471,2.1508,2.1563,2.1625,2.1642,2.17,2.1744,2.181,2.1839,2.1928,2.1946,2.1968,2.1975,2.1967,2.1965,2.1995,2.199,2.1987,2.1986,2.1986,2.1985,0,2.1168,2.1206,2.13,2.1371,2.1391,2.1448,2.151,2.1563,2.1597,2.1675,2.1696,2.175,2.1828,2.187,2.1968,2.1988,2.2088,2.2091,2.2066,2.2069,2.2118,2.2114,2.2267,2.229,2.2175,2.2176,2.2176,0,2.1227,2.1282,2.1359,2.14,2.1437,2.1505,2.155,2.1586,2.1633,2.1711,2.1755,2.1833,2.1898,2.2022,2.2072,2.2147,2.2154,2.2202,2.2165,2.2156,2.2157,2.2153,2.216,2.2209,2.221,2.2211,2.2212,0,2.1329,2.1345,2.1409,2.148,2.1534,2.1592,2.165,2.1683,2.1729,2.1782,2.186,2.191,2.201,2.2089,2.2168,2.2209,2.2219,2.2223,2.2239,2.2232,2.2216,2.2227,2.2085,2.2219,2.2219,2.2218,2.2218,2.2217,2.1397,2.1448,2.1509,2.1581,2.1627,2.1681,2.1735,2.1776,2.1841,2.1924,2.1942,2.2025,2.209,2.2198,2.2241,2.2309,2.2299,2.2322,2.2328,2.2334,2.2337,2.2203,2.2323,2.2323,2.2323,2.2323,2.2323,0,2.1501,2.1542,2.1607,2.1686,2.1743,2.1745,2.181,2.1858,2.1931,2.1989,2.2052,2.2144,2.2221,2.2277,2.2355,2.2399,2.2406,2.2419,2.2417,2.2426,2.2339,2.2318,2.2412,2.2412,2.2412,2.2412,2.2412,2.2412,2.1562,2.1648,2.1673,2.1783,2.1824,2.1905,2.1942,2.1992,2.2039,2.214,2.2203,2.2239,2.2297,2.238,2.2452,2.2466,2.2495,2.2508,2.2524,2.2442,2.2432,2.2423,2.2404,2.2514,2.2514,2.2605,2.2606,2.2607]},{"header":{"parameterUnit":"m.s-1","parameterCategory":1,"la1":30.2991,"la2":30.254,"lo1":-89.0895,"lo2":-89.0444,"dy":0.0017,"dx":0.0017,"nx":28,"ny":28,"refTime":"2025-07-10T21:00:00:Z","depth":0,"parameterNumber":3,"parameterNumberName":"V-component_of_WINDS"},"data":[0,0,0,0,0,0,0,0,0,0,0,0,0,0,0,0,0,0,0,0,0,0,0,0,0,0,0,0,0,0,0,0,0,0,0,0,0,0,0,0,0,0,0,0,0,0,0,0,0,0,0,0,0,0,0,0,0,0,1.8257,1.8256,0,1.8244,1.8243,1.8243,1.823,1.823,1.8229,1.8229,1.8214,1.8214,1.8213,0,0,0,0,0,0,0,0,0,0,0,0,0,1.8264,1.8264,1.8257,1.8256,1.8256,1.8244,1.8243,1.8243,1.823,1.823,1.8229,1.8229,1.8214,1.8214,1.8213,0,0,0,0,0,0,0,0,0,0,0,0,0,1.8257,1.8264,1.8257,1.8248,1.8247,1.8244,1.8243,1.8243,1.823,1.823,1.8229,1.8229,1.8214,1.8214,1.8213,1.8217,0,0,1.8212,1.8212,0,0,0,0,0,0,0,0,1.8258,1.8257,1.8249,1.8249,1.8248,1.8238,1.8241,1.8234,1.823,1.8236,1.8229,1.8229,1.8222,1.8221,1.8219,1.8216,1.8215,1.8212,1.8212,1.8212,1.8212,0,0,0,0,0,0,0,1.8258,1.8257,1.8251,1.8249,1.8248,1.8243,1.8242,1.8239,1.8231,1.8236,1.8235,1.8234,1.8221,1.8219,1.8219,1.8215,1.8212,1.8212,1.8212,1.8211,1.8209,1.8209,0,0,0,0,0,0,1.826,1.8258,1.8252,1.8251,1.8252,1.8243,1.8242,1.8241,1.8231,1.8229,1.8234,1.8233,1.822,1.8219,1.8218,1.8218,1.8212,1.8211,1.8211,1.8209,1.8209,1.8209,0,0,0,0,0,0,1.8261,1.826,1.8252,1.8254,1.8253,1.8243,1.8243,1.8241,1.8239,1.8229,1.8227,1.8234,1.822,1.8218,1.8216,1.8218,1.8211,1.8211,1.8209,1.8209,1.8209,1.8221,0,0,0,0,0,0,1.8261,1.826,1.8263,1.8254,1.8253,1.8252,1.8243,1.8241,1.8239,1.8238,1.8229,1.8227,1.822,1.8217,1.8216,1.8217,1.8211,1.8208,1.8209,1.8209,1.822,1.8221,1.8222,0,0,0,0,0,1.8261,1.8267,1.8263,1.8263,1.8256,1.8253,1.8251,1.8244,1.8239,1.8241,1.8233,1.8227,1.8218,1.8217,1.8215,1.8217,1.8208,1.8209,1.8209,1.822,1.8221,1.8222,0,0,0,0,0,0,1.8277,1.8266,1.8262,1.8265,1.826,1.825,1.8252,1.8246,1.8241,1.824,1.823,1.8228,1.8226,1.8221,1.822,1.8217,1.8212,1.8212,1.822,1.8222,1.8223,1.8224,1.821,0,0,0,0,0,1.828,1.828,1.827,1.8274,1.8271,1.8262,1.826,1.8254,1.8248,1.8246,1.8239,1.8232,1.8227,1.8224,1.8219,1.8219,1.8215,1.8219,1.822,1.8221,1.8221,1.8217,1.8218,1.821,1.821,1.821,0,0,1.8288,1.8282,1.8283,1.8277,1.8272,1.8269,1.826,1.8259,1.8256,1.8245,1.8242,1.8236,1.8228,1.8226,1.8224,1.8222,1.8222,1.8222,1.8222,1.8222,1.8218,1.8218,1.8219,1.821,1.821,1.821,0,0,1.8301,1.8297,1.8298,1.8293,1.8286,1.8279,1.8279,1.827,1.8265,1.8262,1.8252,1.8248,1.8241,1.8234,1.823,1.8235,1.8228,1.8234,1.824,1.8236,1.8236,1.8237,1.8237,1.8237,1.8234,1.8234,1.8234,0,1.8311,1.8308,1.83,1.8298,1.8294,1.8283,1.8283,1.8278,1.8269,1.8266,1.8263,1.8251,1.8245,1.8239,1.824,1.8238,1.8235,1.8235,1.8237,1.8238,1.8238,1.8237,1.8237,1.8235,1.8235,1.8235,1.8235,0,1.832,1.8317,1.8319,1.831,1.8306,1.8306,1.8295,1.8292,1.8285,1.8278,1.8272,1.8264,1.8256,1.8254,1.8248,1.8246,1.8244,1.824,1.8234,1.8239,1.8238,1.8238,1.8236,1.8235,1.8235,1.8235,0,0,1.8343,1.8327,1.8328,1.8322,1.8311,1.8309,1.8305,1.8297,1.8293,1.8287,1.8282,1.8274,1.8269,1.8264,1.8256,1.8253,1.8254,1.8248,1.8247,1.8248,1.8249,1.8252,1.8252,1.825,1.825,1.8249,1.8249,0,1.8352,1.8347,1.8338,1.8335,1.8331,1.8319,1.8315,1.8307,1.8299,1.8293,1.8284,1.8278,1.8272,1.8269,1.8265,1.8255,1.8254,1.8255,1.8243,1.8243,1.8245,1.8252,1.8256,1.8256,1.8249,1.8249,1.8249,0,1.8363,1.8356,1.8353,1.8339,1.8337,1.8334,1.8324,1.8319,1.8308,1.8303,1.8295,1.8287,1.828,1.8275,1.8264,1.8265,1.8259,1.8253,1.8253,1.8251,1.8246,1.8249,1.8256,1.8255,1.8248,1.8248,1.8248,0,1.8378,1.8368,1.8363,1.8359,1.8344,1.8341,1.8335,1.8323,1.8318,1.8308,1.8304,1.8294,1.8288,1.828,1.8267,1.8265,1.8257,1.8252,1.825,1.825,1.8249,1.8249,1.8254,1.8247,1.8247,1.8247,1.8247,0,1.8388,1.8386,1.8369,1.8366,1.8362,1.835,1.8346,1.8338,1.8327,1.8321,1.831,1.8304,1.8289,1.8281,1.8271,1.8262,1.8259,1.8253,1.825,1.8254,1.8254,1.8249,1.8248,1.8247,1.8247,1.8247,1.8247,0,1.8404,1.8393,1.8387,1.8372,1.8368,1.8365,1.8352,1.8347,1.8338,1.833,1.8327,1.8312,1.8301,1.8288,1.8273,1.8266,1.8257,1.8254,1.8261,1.8259,1.8258,1.8258,1.8259,1.8258,1.8253,1.8253,1.8253,0,1.8411,1.8409,1.8393,1.8388,1.8381,1.8374,1.8368,1.8355,1.8348,1.8334,1.833,1.8319,1.8308,1.8291,1.8278,1.8265,1.8261,1.8262,1.8259,1.8261,1.8259,1.8258,1.8257,1.8263,1.8263,1.8263,1.8263,0,1.8424,1.8417,1.841,1.8399,1.8392,1.8382,1.8373,1.8369,1.8353,1.8346,1.8335,1.8327,1.831,1.8298,1.8283,1.8274,1.8265,1.8264,1.8263,1.8266,1.8269,1.8265,1.8262,1.8264,1.8264,1.8264,1.8264,1.8264,1.8434,1.843,1.8418,1.8408,1.8399,1.8389,1.8383,1.8373,1.8363,1.8349,1.8341,1.8329,1.8315,1.8294,1.8285,1.8275,1.8272,1.827,1.827,1.8269,1.8269,1.8271,1.8272,1.8272,1.8272,1.8272,1.8272,0,1.8444,1.8435,1.8426,1.8412,1.8404,1.8396,1.8384,1.8377,1.8367,1.8355,1.8345,1.833,1.8317,1.8302,1.8287,1.8281,1.8276,1.8278,1.8277,1.8275,1.8274,1.8276,1.8281,1.8281,1.8281,1.8281,1.8281,1.8281,1.8449,1.8441,1.8433,1.8419,1.8409,1.8398,1.8391,1.8381,1.8371,1.8355,1.8344,1.8334,1.832,1.8304,1.8291,1.8286,1.8281,1.8283,1.8277,1.8276,1.8275,1.8275,1.8276,1.8282,1.8282,1.8279,1.8279,1.8279]}]]